TimeCST,TemperatureF,Dew PointF,Humidity,Sea Level PressureIn,VisibilityMPH,Wind Direction,Wind SpeedMPH,Gust SpeedMPH,PrecipitationIn,Events,Conditions,WindDirDegrees,DateUTC
12:15 AM,32.0,32.0,100,29.60,7.0,SW,9.2,-,N/A,Rain,Light Rain,220,2012-12-01 06:15:00
12:35 AM,32.0,32.0,100,29.60,9.0,SW,10.4,-,N/A,Rain,Light Rain,220,2012-12-01 06:35:00
12:55 AM,32.0,32.0,100,29.60,10.0,SW,3.5,-,N/A,,Mostly Cloudy,220,2012-12-01 06:55:00
1:15 AM,32.0,32.0,100,29.61,10.0,SW,4.6,-,N/A,,Mostly Cloudy,230,2012-12-01 07:15:00
1:35 AM,33.8,33.8,100,29.62,8.0,NW,6.9,-,N/A,,Overcast,310,2012-12-01 07:35:00
2:15 AM,33.8,33.8,100,29.62,7.0,WNW,8.1,-,N/A,,Overcast,300,2012-12-01 08:15:00
3:35 AM,26.6,26.6,100,29.66,5.0,NNW,19.6,25.3,N/A,,Overcast,330,2012-12-01 09:35:00
4:15 AM,24.8,23.0,93,29.69,5.0,NNW,16.1,23.0,N/A,,Mostly Cloudy,330,2012-12-01 10:15:00
4:35 AM,23.0,23.0,100,29.70,3.0,NW,18.4,23.0,N/A,,Overcast,320,2012-12-01 10:35:00
4:55 AM,23.0,23.0,100,29.72,3.0,NNW,13.8,-,N/A,,Overcast,330,2012-12-01 10:55:00
5:15 AM,21.2,21.2,100,29.73,3.0,NW,15.0,-,N/A,,Overcast,310,2012-12-01 11:15:00
6:35 AM,19.4,19.4,100,29.75,3.0,NW,17.3,-,N/A,,Overcast,320,2012-12-01 12:35:00
7:15 AM,19.4,19.4,100,29.76,4.0,NW,15.0,-,N/A,,Overcast,310,2012-12-01 13:15:00
7:35 AM,19.4,19.4,100,29.77,5.0,NW,11.5,-,N/A,,Overcast,310,2012-12-01 13:35:00
7:55 AM,19.4,19.4,100,29.77,4.0,NW,15.0,19.6,N/A,,Overcast,310,2012-12-01 13:55:00
8:15 AM,19.4,19.4,100,29.77,4.0,NNW,15.0,-,N/A,,Overcast,330,2012-12-01 14:15:00
8:35 AM,19.4,19.4,100,29.77,3.0,NNW,10.4,-,N/A,,Overcast,340,2012-12-01 14:35:00
8:55 AM,19.4,19.4,100,29.77,3.0,NNW,10.4,-,N/A,,Overcast,340,2012-12-01 14:55:00
9:15 AM,19.4,19.4,100,29.76,1.8,NNW,11.5,-,N/A,,Overcast,340,2012-12-01 15:15:00
9:35 AM,19.4,19.4,100,29.76,1.0,NNW,10.4,-,N/A,,Overcast,330,2012-12-01 15:35:00
10:15 AM,19.4,19.4,100,29.77,0.5,NW,8.1,-,N/A,Fog,Light Freezing Fog,320,2012-12-01 16:15:00
10:35 AM,19.4,19.4,100,29.76,0.8,NNW,6.9,-,N/A,,Overcast,330,2012-12-01 16:35:00
10:55 AM,19.4,19.4,100,29.77,1.0,NW,6.9,-,N/A,,Overcast,320,2012-12-01 16:55:00
11:15 AM,19.4,19.4,100,29.79,0.8,NW,6.9,-,N/A,,Overcast,310,2012-12-01 17:15:00
11:35 AM,21.2,21.2,100,29.78,0.5,NW,8.1,-,N/A,Fog,Light Freezing Fog,310,2012-12-01 17:35:00
11:55 AM,21.2,21.2,100,29.78,0.2,WNW,5.8,-,N/A,Fog,Light Freezing Fog,300,2012-12-01 17:55:00
12:15 PM,23.0,23.0,100,29.77,1.2,NNW,5.8,-,N/A,,Overcast,330,2012-12-01 18:15:00
12:35 PM,23.0,23.0,100,29.77,2.5,WNW,4.6,-,N/A,,Overcast,290,2012-12-01 18:35:00
12:55 PM,23.0,23.0,100,29.77,2.5,WNW,3.5,-,N/A,,Overcast,300,2012-12-01 18:55:00
1:15 PM,23.0,23.0,100,29.76,1.5,North,3.5,-,N/A,,Overcast,350,2012-12-01 19:15:00
1:35 PM,23.0,23.0,100,29.76,3.0,NW,3.5,-,N/A,,Overcast,310,2012-12-01 19:35:00
1:55 PM,23.0,23.0,100,29.77,2.5,West,3.5,-,N/A,,Overcast,280,2012-12-01 19:55:00
2:15 PM,23.0,23.0,100,29.77,3.0,Calm,Calm,-,N/A,,Overcast,0,2012-12-01 20:15:00
2:35 PM,23.0,23.0,100,29.76,4.0,SSW,3.5,-,N/A,,Overcast,200,2012-12-01 20:35:00
3:15 PM,23.0,23.0,100,29.75,4.0,South,3.5,-,N/A,,Overcast,190,2012-12-01 21:15:00
3:35 PM,23.0,23.0,100,29.75,5.0,Calm,Calm,-,N/A,,Overcast,0,2012-12-01 21:35:00
3:55 PM,23.0,23.0,100,29.75,4.0,SE,3.5,-,N/A,,Overcast,140,2012-12-01 21:55:00
4:15 PM,24.8,24.8,100,29.76,5.0,SSE,5.8,-,N/A,,Overcast,150,2012-12-01 22:15:00
4:35 PM,23.0,23.0,100,29.76,5.0,SE,3.5,-,N/A,,Overcast,130,2012-12-01 22:35:00
4:55 PM,23.0,23.0,100,29.76,5.0,SE,3.5,-,N/A,,Overcast,140,2012-12-01 22:55:00
5:15 PM,24.8,24.8,100,29.76,5.0,SE,4.6,-,N/A,,Overcast,130,2012-12-01 23:15:00
5:55 PM,24.8,24.8,100,29.75,4.0,SSE,5.8,-,N/A,,Overcast,150,2012-12-01 23:55:00
6:15 PM,24.8,24.8,100,29.74,5.0,SE,9.2,-,N/A,,Overcast,130,2012-12-02 00:15:00
6:35 PM,23.0,23.0,100,29.74,5.0,SE,8.1,-,N/A,,Overcast,140,2012-12-02 00:35:00
6:55 PM,23.0,23.0,100,29.74,3.0,SE,8.1,-,N/A,,Overcast,130,2012-12-02 00:55:00
7:15 PM,23.0,23.0,100,29.75,4.0,ESE,6.9,-,N/A,,Overcast,110,2012-12-02 01:15:00
7:35 PM,23.0,23.0,100,29.74,4.0,ESE,5.8,-,N/A,,Overcast,120,2012-12-02 01:35:00
7:55 PM,23.0,23.0,100,29.74,5.0,ESE,6.9,-,N/A,,Overcast,120,2012-12-02 01:55:00
8:15 PM,24.8,24.8,100,29.74,6.0,SE,5.8,-,N/A,,Overcast,140,2012-12-02 02:15:00
8:35 PM,24.8,24.8,100,29.73,5.0,ESE,5.8,-,N/A,,Overcast,120,2012-12-02 02:35:00
8:55 PM,23.0,23.0,100,29.73,5.0,SE,4.6,-,N/A,,Partly Cloudy,130,2012-12-02 02:55:00
9:15 PM,19.4,19.4,100,29.72,5.0,East,6.9,-,N/A,,Partly Cloudy,80,2012-12-02 03:15:00
9:35 PM,19.4,19.4,100,29.72,5.0,ESE,5.8,-,N/A,,Scattered Clouds,110,2012-12-02 03:35:00
9:55 PM,19.4,19.4,100,29.72,5.0,SE,5.8,-,N/A,,Mostly Cloudy,130,2012-12-02 03:55:00
10:15 PM,19.4,19.4,100,29.72,5.0,SE,4.6,-,N/A,,Overcast,140,2012-12-02 04:15:00
10:35 PM,23.0,23.0,100,29.72,5.0,SE,5.8,-,N/A,,Overcast,140,2012-12-02 04:35:00
10:55 PM,23.0,23.0,100,29.71,3.0,SSE,5.8,-,N/A,,Overcast,150,2012-12-02 04:55:00
11:15 PM,23.0,23.0,100,29.71,1.0,ESE,5.8,-,N/A,,Overcast,120,2012-12-02 05:15:00
11:35 PM,23.0,23.0,100,29.70,0.5,ESE,4.6,-,N/A,Fog,Light Freezing Fog,120,2012-12-02 05:35:00
11:55 PM,24.8,24.8,100,29.69,0.5,SSE,5.8,-,N/A,Fog,Light Freezing Fog,160,2012-12-02 05:55:00